Home   Weather   Laredo   Past weeks

Flag for USA Past Weather in Laredo, Texas, USA — Yesterday and Last 2 Weeks

Now
83 °F

Sunny.


Feels Like: 88 °F
Forecast: 80 / 105 °F
Wind: 12 mph from Southeast

Location: Laredo International Airport

Current Time: Jul 21, 2017 at 9:50:10 am

Latest Report: Jul 21, 2017 at 8:56 am


Visibility: 10 mi

Pressure: N/A

Humidity: 70%

Dew Point: 72 °F

Location of LaredoLocation

Past Weather in Laredo — Graph

°F

Laredo Temperature Yesterday

Maximum temperature yesterday: 105 °F (at 3:56 pm)
Minimum temperature yesterday: 79 °F (at 5:56 am)
Average temperature yesterday: 91 °F

High & Low Weather Summary for the Past Weeks

 TemperatureHumidityPressure
High105 °F (Jul 20, 3:56 pm)94% (Jul 12, 7:56 am)30.12 "Hg (Jul 12, 7:56 am)
Low73 °F (Jul 8, 3:56 am)25% (Jul 20, 3:56 pm)29.85 "Hg (Jul 16, 3:56 pm)
Average86 °F62%29.99 "Hg
* Reported Jul 6 6:56 am — Jul 21 6:56 am, Laredo. Weather by CustomWeather, © 2017

Note: Actual official high and low records may vary slightly from our data, if they occured in-between our weather recording intervals... More about our weather records

Advertising

Laredo Weather History for the Previous 24 Hours

Scroll right to see more
 ConditionsComfort  
Time TempWeatherWind HumidityBarometerVisibility
6:56 am
Fri, Jul 21
78 °FSunny.7 mph79%N/A10 mi
5:56 am79 °FClear.7 mph77%N/A10 mi
4:56 am80 °FClear.9 mph74%29.96 "Hg10 mi
3:56 am81 °FClear.10 mph69%29.96 "Hg10 mi
2:56 am82 °FClear.12 mph65%29.98 "Hg10 mi
1:56 am84 °FClear.13 mph61%29.99 "Hg10 mi
12:56 am86 °FClear.16 mph55%30.01 "Hg10 mi
11:56 pm
Thu, Jul 20
88 °FClear.17 mph50%30.00 "Hg10 mi
10:56 pm91 °FClear.21 mph45%29.97 "Hg10 mi
9:56 pm92 °FClear.20 mph52%29.94 "Hg10 mi
8:56 pm96 °FClear.17 mph37%29.92 "Hg10 mi
7:56 pm99 °FSunny.15 mph30%29.91 "Hg10 mi
6:56 pm101 °FSunny.17 mph28%29.90 "Hg10 mi
5:56 pm103 °FPassing clouds.12 mph28%29.91 "Hg10 mi
4:56 pm104 °FScattered clouds.17 mph25%29.93 "Hg10 mi
3:56 pm105 °FPassing clouds.14 mph25%29.96 "Hg10 mi
2:56 pm102 °FPassing clouds.17 mph28%29.98 "Hg10 mi
1:56 pm101 °FSunny.17 mph30%30.01 "Hg10 mi
12:56 pm98 °FSunny.14 mph35%30.04 "Hg10 mi
11:56 am94 °FSunny.10 mph44%30.07 "Hg10 mi
10:56 am89 °FSunny.7 mph55%30.09 "Hg10 mi
9:56 am86 °FSunny.12 mph61%30.09 "Hg10 mi
Weather by CustomWeather, © 2017

See weather overviewHow to use our weather pages